Location: Moscow
(30.9132°N, 94.8252°W)
Time: 11:47:49
(UTC+00:00)

Cosmos 2233 Rocket - Pass Details

Date: 15 November 2025
Orbit: 952 x 989 km, 82.9° (Epoch: 11 December)

Event Time Altitude Azimuth Distance (km) Brightness Sun altitude
Rises 11:27:39 0° 347° (NNW) 3,691 6.8 -17.0°
Reaches altitude 10° 11:30:15 10° 342° (NNW) 2,735 6.1 -16.4°
Maximum altitude 11:36:14 50° 269° (W) 1,226 4.1 -15.2°
Drops below altitude 10° 11:42:10 10° 196° (SSW) 2,697 6.3 -14.0°
Sets 11:44:43 0° 191° (S) 3,635 7.0 -13.4°
